Weather History for KVSH - January, 2013

Change the Weather History Date:

Sunday, January 6, 2013

  Actual Average (KMAI) Record (KMAI)
Temperature  
Mean Temperature 48 °F 50 °F  
Max Temperature 51 °F 61 °F - ()
Min Temperature 46 °F 38 °F - ()
Degree Days  
Heating Degree Days 16    
Month to date heating degree days  
Since 1 July heating degree days  
Cooling Degree Days 0    
Month to date cooling degree days  
Year to date cooling degree days  
Moisture  
Dew Point 43 °F    
Average Humidity 81    
Maximum Humidity 93    
Minimum Humidity 58    
Precipitation  
Precipitation 0.00 in 0.18 in - ()
Month to date precipitation 1.05  
Year to date precipitation 1.05  
Sea Level Pressure  
Sea Level Pressure 30.23 in    
Wind  
Wind Speed 7 mph (NNE)    
Max Wind Speed 14 mph    
Max Gust Speed 20 mph    
Visibility 9 miles    
Events      
T = Trace of Precipitation, MM = Missing Value Source: NWS Daily Summary

Daily Weather History Graph

Daily Weather History Graph

Search for Another Location

Airport or City:

Trip Planner

Search our weather history database for the weather conditions in past years. The results will help you decide how hot, cold, wet, or windy it might be!

Date:

Astronomy

Jan. 06, 2013 Rise Set
Actual Time 6:40 AM CST 4:56 PM CST
Civil Twilight 6:14 AM CST 5:22 PM CST
Nautical Twilight 5:44 AM CST 5:52 PM CST
Astronomical Twilight 5:15 AM CST 6:21 PM CST
Moon 1:03 AM CST (1/6) 12:15 PM CST (1/6)
Length of Visible Light 11h 07m
Length of Day
10h 15m
Waning Crescent, 33% of the Moon is Illuminated
Jan 6
Waning Crescent
Jan 11
New
Jan 18
First Quarter
Jan 26
Full
Feb 3
Last Quarter

Hourly Weather History & Observations

Time (CST) Temp. Windchill Dew Point Humidity Pressure Visibility Wind Dir Wind Speed Gust Speed Precip Events Conditions
12:15 AM 51.8 °F - 37.4 °F 58% 30.22 in 10.0 mi NE 6.9 mph - N/A   Overcast
12:35 AM 51.8 °F - 37.4 °F 58% 30.22 in 10.0 mi ENE 5.8 mph - N/A   Overcast
12:55 AM 51.8 °F - 37.4 °F 58% 30.21 in 10.0 mi East 6.9 mph - N/A   Overcast
1:15 AM 51.8 °F - 39.2 °F 62% 30.21 in 10.0 mi ENE 4.6 mph - N/A   Overcast
1:35 AM 51.8 °F - 39.2 °F 62% 30.21 in 10.0 mi Calm Calm - N/A   Overcast
1:55 AM 51.8 °F - 39.2 °F 62% 30.20 in 10.0 mi East 5.8 mph - N/A   Overcast
2:15 AM 51.8 °F - 39.2 °F 62% 30.19 in 10.0 mi Calm Calm - N/A   Overcast
2:35 AM 51.8 °F - 39.2 °F 62% 30.19 in 10.0 mi NE 4.6 mph - N/A   Overcast
2:55 AM 51.8 °F - 39.2 °F 62% 30.18 in 10.0 mi ENE 5.8 mph - N/A   Overcast
3:15 AM 51.8 °F - 39.2 °F 62% 30.18 in 10.0 mi NE 3.5 mph - N/A   Overcast
3:35 AM 51.8 °F - 39.2 °F 62% 30.17 in 10.0 mi NE 4.6 mph - N/A   Overcast
3:55 AM 51.8 °F - 39.2 °F 62% 30.17 in 10.0 mi NE 4.6 mph - N/A   Overcast
4:15 AM 51.8 °F - 39.2 °F 62% 30.17 in 10.0 mi ENE 9.2 mph - N/A   Overcast
4:35 AM 51.8 °F - 41.0 °F 67% 30.17 in 10.0 mi NNE 4.6 mph - N/A   Overcast
4:55 AM 51.8 °F - 41.0 °F 67% 30.17 in 10.0 mi NNE 4.6 mph - N/A   Overcast
5:15 AM 51.8 °F - 39.2 °F 62% 30.17 in 10.0 mi NNE 6.9 mph - N/A   Overcast
5:35 AM 51.8 °F - 39.2 °F 62% 30.18 in 10.0 mi NNE 6.9 mph - N/A   Overcast
6:15 AM 51.8 °F - 41.0 °F 67% 30.20 in 10.0 mi NNE 5.8 mph - N/A   Overcast
6:35 AM 48.2 °F - 42.8 °F 82% 30.21 in 9.0 mi NNE 9.2 mph - N/A   Overcast
6:55 AM 48.2 °F - 44.6 °F 87% 30.23 in 8.0 mi NNE 8.1 mph - N/A   Overcast
7:15 AM 48.2 °F - 44.6 °F 87% 30.24 in 4.0 mi North 8.1 mph - N/A   Overcast
7:35 AM 48.2 °F - 44.6 °F 87% 30.25 in 3.0 mi NNE 6.9 mph - N/A   Overcast
7:55 AM 46.4 °F 40.7 °F 44.6 °F 93% 30.25 in 8.0 mi NNE 12.7 mph - N/A   Overcast
8:15 AM 46.4 °F 41.9 °F 44.6 °F 93% 30.25 in 5.0 mi NNE 9.2 mph 17.3 mph N/A   Overcast
8:35 AM 46.4 °F 41.1 °F 44.6 °F 93% 30.25 in 5.0 mi NNE 11.5 mph 17.3 mph N/A   Overcast
8:55 AM 46.4 °F 40.4 °F 44.6 °F 93% 30.25 in 3.0 mi NNE 13.8 mph 19.6 mph N/A   Overcast
9:15 AM 46.4 °F 42.4 °F 44.6 °F 93% 30.25 in 4.0 mi NNE 8.1 mph 17.3 mph N/A   Overcast
9:35 AM 46.4 °F 41.1 °F 44.6 °F 93% 30.25 in 3.0 mi NNE 11.5 mph 17.3 mph N/A   Overcast
9:55 AM 46.4 °F 41.1 °F 44.6 °F 93% 30.26 in 3.0 mi NNE 11.5 mph - N/A   Overcast
10:15 AM 46.4 °F 41.9 °F 44.6 °F 93% 30.27 in 4.0 mi North 9.2 mph 18.4 mph N/A   Overcast
10:35 AM 46.4 °F 41.1 °F 44.6 °F 93% 30.27 in 5.0 mi NNE 11.5 mph - N/A   Overcast
10:55 AM 46.4 °F 40.7 °F 44.6 °F 93% 30.25 in 10.0 mi NNE 12.7 mph 19.6 mph N/A   Overcast
11:15 AM 48.2 °F - 44.6 °F 87% 30.25 in 10.0 mi North 9.2 mph - N/A   Overcast
11:35 AM 48.2 °F - 46.4 °F 93% 30.24 in 10.0 mi NNE 12.7 mph 18.4 mph N/A   Overcast
11:55 AM 48.2 °F - 44.6 °F 87% 30.24 in 10.0 mi North 10.4 mph 18.4 mph N/A   Overcast
12:15 PM 48.2 °F - 44.6 °F 87% 30.22 in 10.0 mi North 8.1 mph 17.3 mph N/A   Overcast
12:35 PM 48.2 °F - 46.4 °F 93% 30.22 in 9.0 mi NNE 8.1 mph - N/A   Overcast
12:55 PM 48.2 °F - 46.4 °F 93% 30.22 in 3.0 mi NNE 8.1 mph - N/A   Overcast
1:15 PM 48.2 °F - 46.4 °F 93% 30.22 in 5.0 mi North 6.9 mph 17.3 mph N/A   Overcast
1:35 PM 48.2 °F - 46.4 °F 93% 30.21 in 10.0 mi NNE 10.4 mph - N/A   Overcast
1:55 PM 48.2 °F - 46.4 °F 93% 30.21 in 10.0 mi North 9.2 mph - N/A   Overcast
2:15 PM 48.2 °F - 46.4 °F 93% 30.22 in 10.0 mi North 9.2 mph - N/A   Overcast
2:35 PM 50.0 °F - 46.4 °F 87% 30.21 in 10.0 mi North 5.8 mph - N/A   Overcast
2:55 PM 50.0 °F - 46.4 °F 87% 30.22 in 10.0 mi NNE 9.2 mph 16.1 mph N/A   Overcast
3:15 PM 50.0 °F - 46.4 °F 87% 30.22 in 10.0 mi NNE 8.1 mph - N/A   Overcast
3:35 PM 50.0 °F - 46.4 °F 87% 30.22 in 10.0 mi North 6.9 mph - N/A   Overcast
3:55 PM 50.0 °F - 46.4 °F 87% 30.23 in 10.0 mi NNE 10.4 mph - N/A   Overcast
4:15 PM 48.2 °F - 46.4 °F 93% 30.22 in 10.0 mi North 5.8 mph - N/A   Overcast
4:35 PM 50.0 °F - 46.4 °F 87% 30.23 in 10.0 mi North 5.8 mph - N/A   Overcast
4:55 PM 50.0 °F - 46.4 °F 87% 30.23 in 10.0 mi NNE 5.8 mph - N/A   Overcast
5:15 PM 50.0 °F - 46.4 °F 87% 30.24 in 10.0 mi North 6.9 mph - N/A   Overcast
5:35 PM 50.0 °F - 44.6 °F 82% 30.24 in 10.0 mi NNE 6.9 mph - N/A   Overcast
5:55 PM 50.0 °F - 44.6 °F 82% 30.25 in 10.0 mi North 8.1 mph - N/A   Overcast
6:15 PM 50.0 °F - 46.4 °F 87% 30.25 in 10.0 mi North 5.8 mph - N/A   Overcast
6:35 PM 50.0 °F - 44.6 °F 82% 30.26 in 10.0 mi NNE 8.1 mph - N/A   Overcast
6:55 PM 50.0 °F - 44.6 °F 82% 30.27 in 10.0 mi North 6.9 mph - N/A   Overcast
7:15 PM 50.0 °F - 44.6 °F 82% 30.27 in 10.0 mi NNE 9.2 mph - N/A   Overcast
7:35 PM 50.0 °F - 44.6 °F 82% 30.27 in 10.0 mi North 8.1 mph - N/A   Overcast
7:55 PM 50.0 °F - 44.6 °F 82% 30.27 in 10.0 mi North 6.9 mph - N/A   Overcast
8:15 PM 50.0 °F - 44.6 °F 82% 30.27 in 10.0 mi North 6.9 mph - N/A   Mostly Cloudy
8:35 PM 50.0 °F - 44.6 °F 82% 30.28 in 10.0 mi North 6.9 mph - N/A   Clear
9:15 PM 50.0 °F - 44.6 °F 82% 30.29 in 10.0 mi North 4.6 mph - N/A   Clear
9:55 PM 48.2 °F - 44.6 °F 87% 30.30 in 10.0 mi NNE 5.8 mph - N/A   Clear
10:15 PM 48.2 °F - 44.6 °F 87% 30.30 in 10.0 mi North 4.6 mph - N/A   Clear
10:35 PM 48.2 °F - 42.8 °F 82% 30.30 in 10.0 mi NNE 4.6 mph - N/A   Clear
10:55 PM 48.2 °F - 42.8 °F 82% 30.30 in 10.0 mi NNE 4.6 mph - N/A   Clear
11:35 PM 48.2 °F - 42.8 °F 82% 30.30 in 10.0 mi North 3.5 mph - N/A   Clear
11:55 PM 48.2 °F - 42.8 °F 82% 30.29 in 10.0 mi North 5.8 mph - N/A   Clear